カタログに戻る

STARLINK-35613

運用中通信VLEO
NORAD 66097·PAYLOAD·🇺🇸 United States

打ち上げ Oct 19, 2025 から Vandenberg Space Force Base

Loading…

次のパス (今後24時間)

TLE

最新Source: CelesTrak SupGP

元期: Sep 14, 2026, 22:39 UTC

1 66097C 25236M   26257.94423611  .00040885  00000+0  12082-2 0  2574
2 66097  53.1594 303.6759 0001165  83.7101   8.9161 15.34365150    12

AllMySatでSTARLINK-35613をリアルタイム追跡

Download on the App Store